Location: Newark
(7.0858°N, 171.3717°E)
Time: 17:53:21
(UTC+00:00)

A-11 Canister half - Visible Passes

Search period start: 04 December 2020 00:00
Search period end: 14 December 2020 00:00
Orbit: 1516 x 1684 km, 47.2° (Epoch: 03 December)

Date Brightness Start Highest point End Pass type
(mag) Time Alt. Az. Time Alt. Az. Time Alt. Az.
04 Dec 9.2 07:16:02 10° NW 07:26:13 86° SW 07:36:09 10° SE visible
04 Dec 11.2 09:25:23 10° W 09:31:00 16° SW 09:36:33 10° SSW visible
04 Dec 11.4 18:09:15 10° S 18:15:43 21° SE 18:22:13 10° E visible
05 Dec 9.2 06:53:04 10° NW 07:03:16 88° NE 07:13:14 10° SE visible
05 Dec 11.2 09:01:46 10° W 09:08:02 18° SW 09:14:15 10° S visible
05 Dec 11.4 17:46:51 10° S 17:52:47 19° SE 17:58:46 10° E visible
06 Dec 9.2 06:30:08 10° NW 06:40:20 82° NE 06:50:18 10° SE visible
06 Dec 11.2 08:38:15 10° W 08:45:05 20° SW 08:51:51 10° S visible
06 Dec 11.5 17:24:31 10° SSE 17:29:52 17° SE 17:35:14 10° E visible
07 Dec 11.1 08:14:49 10° W 08:22:08 23° SW 08:29:22 10° S visible
07 Dec 11.5 17:02:18 10° SSE 17:06:56 15° SE 17:11:34 10° E visible
08 Dec 11.1 07:51:27 10° WNW 07:59:11 25° SW 08:06:51 10° S visible
08 Dec 11.6 16:40:17 10° SSE 16:44:00 13° SE 16:47:42 10° ESE visible
09 Dec 11.1 07:28:07 10° WNW 07:36:15 28° SW 07:44:17 10° S visible
09 Dec 11.6 16:18:39 10° SE 16:21:03 11° SE 16:23:26 10° ESE visible
10 Dec 11.0 07:04:52 10° WNW 07:13:18 31° SW 07:21:40 10° S visible
10 Dec 9.5 17:53:46 10° SSW 18:02:55 66° SE 18:12:15 10° NE visible
11 Dec 11.0 06:41:38 10° WNW 06:50:22 34° SW 06:59:02 10° S visible
11 Dec 9.5 17:30:57 10° SSW 17:40:02 61° SE 17:49:15 10° NE visible
12 Dec 9.6 17:08:10 10° SSW 17:17:08 56° SE 17:26:15 10° NE visible
13 Dec 9.7 16:45:24 10° SSW 16:54:15 51° SE 17:03:12 10° NE visible
